Simultaneous Nadir Overpasses (SNOs) Predictions

Prediction of SNOs between AQUA and NPP Satellite Orbit:

Table of predicted SNOs for the next 14.0 days since TLE Epoch: 1/14/2023
Index Date (AQUA) Time (AQUA) Lat,Lon (AQUA) SZA (AQUA ) Date (NPP) Time (NPP) Lat,Lon (NPP) SZA (NPP ) Distance(km) Time Diff (sec)
1 01/15/2023 11:20:04 -79.35, 86.20 66.29 01/15/2023 11:19:49 -79.35, 86.20 66.27 0.23 15
2 01/15/2023 12:09:21 79.65,-104.07 113.29 01/15/2023 12:10:24 79.65,-103.93 113.21 2.82 63
3 01/18/2023 01:56:33 -79.08,-134.59 66.37 01/18/2023 01:55:24 -79.08,-134.65 66.31 1.32 69
4 01/18/2023 02:45:48 79.46, 35.56 113.09 01/18/2023 02:45:57 79.47, 35.61 113.08 1.24 9
5 01/20/2023 17:22:14 79.27, 175.15 112.87 01/20/2023 17:21:30 79.27, 175.17 112.90 0.33 44
6 01/20/2023 18:11:32 -79.58, -15.06 67.59 01/20/2023 18:12:06 -79.59, -14.92 67.64 2.97 34
7 01/23/2023 08:47:56 -79.41, 124.71 67.90 01/23/2023 08:47:38 -79.42, 124.84 67.91 2.86 18
8 01/23/2023 09:37:15 79.63, -66.11 111.78 01/23/2023 09:38:16 79.62, -66.15 111.75 1.05 61
9 01/25/2023 23:24:22 -79.11, -96.31 68.07 01/25/2023 23:23:14 -79.10, -96.44 67.99 2.93 68



Historial Predications of SNOs between AQUA and NPP
